This is the latest recevied weather packets stored in our database for station/object KL1SF-7. If no packets are shown the sender has not sent any weather packets the latest 10 day(s).
| Time | Temp. | Humidity | Pressure | Rain* | Wind** | Luminosity | Snow |
|---|---|---|---|---|---|---|---|
| 1777836209 | 16.67° C | 29% | 1017.8 hPa | 0 mm | - | - | - |
| 1777835621 | 16.67° C | 28% | 1017.8 hPa | 0 mm | - | - | - |
| 1777835014 | 16.67° C | 31% | 1018.5 hPa | 0 mm | - | - | - |
| 1777834415 | 17.22° C | 34% | 1018.5 hPa | 0 mm | - | - | - |
| 1777833804 | 17.78° C | 26% | 1018.5 hPa | 0 mm | - | - | - |
| 1777833217 | 17.78° C | 24% | 1018.6 hPa | 0 mm | - | - | - |
| 1777832602 | 18.89° C | 23% | 1018.3 hPa | 0 mm | - | - | - |
| 1777832012 | 19.44° C | 23% | 1018.3 hPa | 0 mm | - | - | - |
| 1777831425 | 18.89° C | 24% | 1018.8 hPa | 0 mm | - | - | - |
| 1777830805 | 18.89° C | 22% | 1019 hPa | 0 mm | - | - | - |
| 1777830218 | 18.33° C | 22% | 1019 hPa | 0 mm | - | - | - |
| 1777829014 | 19.44° C | 19% | 1019.4 hPa | 0 mm | - | - | - |
| 1777828407 | 19.44° C | 19% | 1019.4 hPa | 0 mm | - | - | - |
| 1777827820 | 18.89° C | 21% | 1019.4 hPa | 0 mm | - | - | - |
| 1777827221 | 18.89° C | 20% | 1019.7 hPa | 0 mm | - | - | - |
| 1777826610 | 18.33° C | 20% | 1019.7 hPa | 0 mm | - | - | - |
| 1777826023 | 18.33° C | 19% | 1019.7 hPa | 0 mm | - | - | - |
| 1777825403 | 18.33° C | 19% | 1019.7 hPa | 0 mm | - | - | - |
| 1777824817 | 18.33° C | 19% | 1019.7 hPa | 0 mm | - | - | - |
| 1777824230 | 18.33° C | 19% | 1019.4 hPa | 0 mm | - | - | - |
| 1777823611 | 17.22° C | 22% | 1019.5 hPa | 0 mm | - | - | - |
| 1777823021 | 17.22° C | 22% | 1019.5 hPa | 0 mm | - | - | - |
| 1777822413 | 16.67° C | 24% | 1019.8 hPa | 0 mm | - | - | - |
| 1777821818 | 16.67° C | 24% | 1019.5 hPa | 0 mm | - | - | - |
| 1777821211 | 15.56° C | 25% | 1019.5 hPa | 0 mm | - | - | - |
* Rain since midnight (hover to see other rain measurements)
** Current wind speed in m/s (hover to see current wind gust speed)